{"data":{"norad_id":51137,"epoch":"2026-09-20T03:44:51.284832Z","epoch_age_seconds":77892,"freshness":"FRESH","line1":"1 51137U 22005AK  26263.15614913 -.00001368  00000+0 -29377-4 0  9996","line2":"2 51137  53.1586 131.0005 0001258  89.0517 271.0630 15.34377644258304","mean_motion":15.34377644,"eccentricity":0.0001258,"inclination_deg":53.1586,"raan_deg":131.0005,"arg_perigee_deg":89.0517,"mean_anomaly_deg":271.063,"bstar":-2.9377e-5,"rev_number":25830,"period_min":93.849125450371,"perigee_km":461.90910169588,"apogee_km":463.63027381852,"semimajor_km":6840.9066877572,"source":"CELESTRAK","updated_at":"2026-09-20T09:00:39.590213Z"}}